CZ-3B DEB, 40193

Orbit data source: Space-Track

CZ-3B DEB, 40193 is space debris in HEO originally from a launch on Mon, 19 Dec 2011 UTC launched from the Xichang Space Center, China (XSC). Debris objects in space refer to the collection of defunct objects orbiting the Earth. Examples of debris include non-operational satellites, rocket bodies, and fragments generated from explosions, collisions, or faulty payload assembly.

Loading next visibility...
Identifier
40193, 2011-077S
Orbit
HEO
Country
Flag of CNCN / PRC
Related business
Manufacturer
CALT
Mission
Spacecraft
Bus & Motor
Unknown
Mass
Unknown
Launch date (UTC)
2011-12-19 (14 years ago)
Launch vehicle
Unknown
Launch site
Xichang Space Center, China (XSC)
Object type
Payload
Rocket body
Debris
Shape & HBR
Unknown shape, 0.2 m
Radar Cross Section
Medium (>0.1 m² and <1 m²)

Expand to show TLE details & history
Last TLE update: 19 hours ago

TLE from 19 hours ago
0 CZ-3B DEB
1 40193U 11077S   26126.59906948 -.00000281  00000-0 -68551-2 0  9990
2 40193  26.4337  41.2694 7418677 319.4327   4.5231  1.86810793 75380
Epoch: 2026-05-06T14:22Z
TLE epoch observation values (Epoch: 2026-05-06T14:22:39.603Z)
Latitude
0.00049°
Longitude
-38.91267°
Altitude
1,636.427 km
Speed
9.228 km/s
True Right ascension
02h 44m 50s
True Declination
0° 00' 02"
Sunlit
Object was in daylight at epoch
Visualization orbit readout
Latitude
Unknown
Longitude
Unknown
Altitude
Unknown
Speed
Unknown
Apparent Right ascension
Unknown
Apparent Declination
Unknown
Sunlit
N/A
Visualization observer readout
Local Sidereal Time
17:52:36
Azimuth
Unknown
Elevation
Unknown
Doppler factor
Unknown
Orbital elements
Apogee altitude
42,136.574 km
Perigee altitude
811.395 km
Semi-major axis
27,852.122 km
Eccentricity
0.74187
Inclination
26.4337°
RAAN
41.2694°
Arg. of periapsis
319.4327°
True anomaly
42.04196°
Mean anomaly
4.5231°
Eccentric anomaly
16.82985°
Mean motion
0.46693 °/min
Orbital period
770.99 mins
BSTAR
-0.0068551
Loading maneuver chart data...
Computing Atmospheric mass density...
Loading historical data...
Loading historical data...
Loading historical data...
Loading historical data...
Loading historical data...
Loading historical data...
Loading historical data...

Documentation

Showing up to 5 results
|